User: anonymous   Login
Location: Pensacola
(30.4142°N, 87.2155°W)
Time: 00:59:23
(UTC-05:00)
Language:

CZ-2C DEB - Orbit

View from above orbital plane
View from above orbital plane
View from above satellite
View from above satellite

Ground track
Ground track

The orbit data is extracted from the following two-line orbital elements,

1 38863U 12056D   24197.58917612  .00012207  00000-0  10257-2 0  9993
2 38863  97.6343 261.1784 0009165 304.8284  55.2076 14.98415134637305
Epoch (UTC): 15 July 2024 14:08:24
Eccentricity: 0.0009165
inclination: 97.6343°
perigee height: 565 km
apogee height: 578 km
right ascension of ascending node: 261.1784°
argument of perigee: 304.8284°
revolutions per day: 14.98415134
mean anomaly at epoch: 55.2076°
orbit number at epoch: 63730

The dashed part of the orbit path shows where the satellite is in the earth's shadow,  

DLR